Location: Chabot Space and Science Center
(37.8191°N, 122.1819°W)
Time: 15:03:31
(UTC-08:00)

ISS - Pass Details

Date: 09 December 2021
Orbit: 413 x 422 km, 51.6° (Epoch: 20 January)

Event Time Altitude Azimuth Distance (km) Brightness Sun altitude
Rises 17:24:18 0° 307° (NW) 2,382 0.5 -7.0°
Reaches altitude 10° 17:26:25 10° 303° (WNW) 1,512 -0.4 -7.4°
Maximum altitude 17:29:47 61° 223° (SW) 480 -3.1 -8.0°
Drops below altitude 10° 17:33:06 10° 142° (SE) 1,496 -1.1 -8.6°
Enters shadow 17:39:06 -12° 137° (SE) 3,955 1.0 -9.7°
